Regional Weather Roundup
Issued by NWS Glasgow, MT

Home | Current Version | Previous Version | Text Only | Print | Product List | Glossary On
Versions: 1 2 3 4 5 6 7 8 9 10 11 12 13 14 15 16 17 18 19 20 21 22 23 24 25 26 27 28 29 30 31 32 33 34 35 36 37 38 39 40 41 42 43 44 45 46 47 48 49 50
000
ASUS45 KGGW 190615
RWRGGW
HOURLY REGIONAL WEATHER ROUNDUP FOR NORTHEAST MONTANA
NATIONAL WEATHER SERVICE GLASGOW MONTANA
1100 PM MST SUN FEB 18 2018

NOTE: "FAIR" INDICATES FEW OR NO CLOUDS BELOW 12,000 FEET WITH NO
SIGNIFICANT WEATHER AND/OR OBSTRUCTIONS TO VISISBILITY.

NORTHEAST MONTANA


CITY           SKY/WX    TMP DP  RH WIND       PRES   REMARKS
GLASGOW        FLURRIES   1  -4  79 NW6       30.14R
6HR MIN TEMP:  -1; 6HR MAX TEMP:   4; 6HR PCP: TRACE;

PLENTYWOOD       N/A     -2  -5  87 NW2         N/A
WOLF POINT     CLOUDY   -12 -18  74 S5        30.18R
JORDAN           N/A     -6 -10  83 W6        30.09S
SIDNEY         MOCLDY     0  -5  79 W6        30.17R
GLENDIVE       CLOUDY     2  -3  80 N8        30.12R
MALTA            N/A     -5  -9  83 SW8         N/A
SCOBEY           N/A     -1 -10  65 CALM      30.07R

FORT PECK REPORTS


CITY           SKY/WX    TMP DP  RH WIND       PRES   REMARKS
FORT PECK        N/A      2  -1  88 W3          N/A

SOUTHEAST MONTANA


CITY           SKY/WX    TMP DP  RH WIND       PRES   REMARKS
BILLINGS       LGT SNOW   1  -2  87 NE8       29.97F FOG
MILES CITY     LGT SNOW   4   1  88 N7        30.08S FOG
BAKER          LGT SNOW   4   0  83 N10       30.04R FOG     WCI -11
LIVINGSTON       N/A      1  -5  75 E21       29.80F WCI -21

CENTRAL MONTANA


CITY           SKY/WX    TMP DP  RH WIND       PRES   REMARKS
HAVRE          CLOUDY   -11 -14  86 SW5       30.15R
LEWISTOWN      LGT SNOW  -4  -6  91 W5        29.95S FOG
GREAT FALLS    CLOUDY    -5  -9  83 N5        30.03R
CUT BANK       CLOUDY   -10 -15  78 NW7       30.02S
HELENA         CLOUDY     1  -7  68 NW10      29.94S WCI -15
BUTTE          LGT SNOW  -1  -8  72 NW7       29.70R
BOZEMAN        LGT SNOW   5  -2  72 W13       29.79S WCI -12

WESTERN MONTANA


CITY           SKY/WX    TMP DP  RH WIND       PRES   REMARKS
MISSOULA       MOCLDY     8  -5  55 E13       29.89R WCI  -8
KALISPELL      NOT AVBL

NORTH DAKOTA


CITY           SKY/WX    TMP DP  RH WIND       PRES   REMARKS
WILLISTON      CLOUDY    -7 -10  87 CALM      30.16R
DICKINSON      LGT SNOW   5  -1  76 N6        30.05R
MINOT          CLOUDY    -3 -12  65 NW6       30.13R
BISMARCK       CLOUDY     8  -1  66 N8        30.13R

SOUTHERN SASKATCHEWAN


CITY           SKY/WX    TMP DP  RH WIND       PRES   REMARKS
REGINA         CLEAR    -13 -18  77 W5        30.12R
ESTEVAN        PTCLDY   -15 -18  84 W3        30.12S
SWIFT CURRENT  CLEAR    -13 -18  77 SW10      30.07R WCI -32




USA.gov is the U.S. government's official web portal to all federal, state and local government web resources and services.